"datetime","# probes","# resolvers","can_ipv6","can_ipv6_prbs","can_tcp","can_tcp_prbs","can_tcp6","can_tcp6_prbs","does_ecs","does_ecs_prbs","does_flagday","does_flagday_prbs","does_rov4","does_rov4_prbs","does_rov6","does_rov6_prbs","does_qnamemin","doesnt_qnamemin","does_qnamemin_prbs","doesnt_qnamemin_prbs","does_nxdomain","doesnt_nxdomain","does_nxdomain_prbs","doesnt_nxdomain_prbs","has_ta_19036","hasnt_ta_19036","has_ta_19036_prbs","hasnt_ta_19036_prbs","has_ta_20326","hasnt_ta_20326","has_ta_20326_prbs","hasnt_ta_20326_prbs","can_rsamd5","cannot_rsamd5","broken_rsamd5","can_rsamd5_prbs","cannot_rsamd5_prbs","broken_rsamd5_prbs","can_dsa","cannot_dsa","broken_dsa","can_dsa_prbs","cannot_dsa_prbs","broken_dsa_prbs","can_rsasha1","cannot_rsasha1","broken_rsasha1","can_rsasha1_prbs","cannot_rsasha1_prbs","broken_rsasha1_prbs","can_dsansec3","cannot_dsansec3","broken_dsansec3","can_dsansec3_prbs","cannot_dsansec3_prbs","broken_dsansec3_prbs","can_rsansec3","cannot_rsansec3","broken_rsansec3","can_rsansec3_prbs","cannot_rsansec3_prbs","broken_rsansec3_prbs","can_rsasha256","cannot_rsasha256","broken_rsasha256","can_rsasha256_prbs","cannot_rsasha256_prbs","broken_rsasha256_prbs","can_rsasha512","cannot_rsasha512","broken_rsasha512","can_rsasha512_prbs","cannot_rsasha512_prbs","broken_rsasha512_prbs","can_eccgost","cannot_eccgost","broken_eccgost","can_eccgost_prbs","cannot_eccgost_prbs","broken_eccgost_prbs","can_ecdsa256","cannot_ecdsa256","broken_ecdsa256","can_ecdsa256_prbs","cannot_ecdsa256_prbs","broken_ecdsa256_prbs","can_ecdsa384","cannot_ecdsa384","broken_ecdsa384","can_ecdsa384_prbs","cannot_ecdsa384_prbs","broken_ecdsa384_prbs","can_ed25519","cannot_ed25519","broken_ed25519","can_ed25519_prbs","cannot_ed25519_prbs","broken_ed25519_prbs","can_ed448","cannot_ed448","broken_ed448","can_ed448_prbs","cannot_ed448_prbs","broken_ed448_prbs","can_gost","cannot_gost","broken_gost","can_gost_prbs","cannot_gost_prbs","broken_gost_prbs","can_sha384","cannot_sha384","broken_sha384","can_sha384_prbs","cannot_sha384_prbs","broken_sha384_prbs","is_internal","is_forwarding","is_external","is_internal_prbs","is_forwarding_prbs","is_external_prbs"
2017-06-20T23:59:50Z,23,43,29,16,43,23,29,16,11,8,0,0,0,0,0,0,0,43,0,23,0,43,0,23,0,0,0,0,0,0,0,0,6,27,10,5,18,8,7,36,0,6,20,0,17,26,0,11,15,0,7,36,0,6,20,0,17,26,0,11,15,0,17,26,0,11,15,0,17,26,0,11,15,0,0,43,0,4,23,0,17,26,0,11,15,0,17,26,0,11,15,0,0,43,0,0,23,0,0,43,0,0,23,0,10,33,0,9,20,0,17,26,0,11,15,0,32,1,10,20,4,8
2017-06-21T23:59:48Z,23,43,29,16,43,23,29,16,11,8,0,0,0,0,0,0,0,43,0,23,0,43,0,23,0,0,0,0,0,0,0,0,6,27,10,5,18,10,7,36,0,6,20,2,17,26,0,11,15,2,7,36,0,6,20,2,17,26,0,11,15,2,17,26,0,11,15,2,17,26,0,11,15,2,0,43,0,4,23,2,17,26,0,11,15,2,17,26,0,11,15,2,0,43,0,0,23,2,0,43,0,0,23,2,10,33,0,9,20,2,17,26,0,11,15,2,32,1,10,20,4,8
2017-06-22T23:59:48Z,23,43,29,16,42,23,29,16,11,8,0,0,0,0,0,0,0,43,0,23,0,43,0,23,0,0,0,0,0,0,0,0,6,27,10,5,18,10,7,36,0,6,20,2,17,26,0,11,15,2,7,36,0,6,20,2,17,26,0,11,15,2,17,26,0,11,15,2,17,26,0,11,15,2,0,43,0,4,23,2,17,26,0,11,15,2,17,26,0,11,15,2,0,43,0,0,23,2,0,43,0,0,23,2,10,33,0,9,20,2,17,26,0,11,15,2,32,1,10,20,4,8
2017-06-23T23:59:50Z,23,45,31,16,45,23,31,16,11,8,0,0,0,0,0,0,0,45,0,23,0,45,0,23,0,0,0,0,0,0,0,0,6,29,10,5,18,8,7,38,0,6,20,0,17,28,0,11,15,0,7,38,0,6,20,0,17,28,0,11,15,0,17,28,0,11,15,0,17,28,0,11,15,0,0,45,0,4,23,0,17,28,0,11,15,0,17,28,0,11,15,0,0,45,0,0,23,0,0,45,0,0,23,0,10,35,0,9,20,0,17,28,0,11,15,0,34,1,10,20,4,8
2017-06-24T23:59:51Z,22,44,31,16,44,22,30,16,11,8,0,0,0,0,0,0,0,44,0,22,0,43,0,21,0,0,0,0,0,0,0,0,6,28,10,5,17,8,6,38,0,5,20,0,16,28,0,10,15,0,6,38,0,5,20,0,16,28,0,10,15,0,16,28,0,10,15,0,16,28,0,10,15,0,0,44,0,4,22,0,16,28,0,10,15,0,16,28,0,10,15,0,0,44,0,0,22,0,0,44,0,0,22,0,10,34,0,9,19,0,16,28,0,10,15,0,33,1,10,19,4,8
2017-06-25T23:59:50Z,22,44,31,16,44,22,31,16,11,8,0,0,0,0,0,0,0,44,0,22,0,44,0,22,0,0,0,0,0,0,0,0,6,28,10,5,17,8,6,38,0,5,20,0,16,28,0,10,15,0,6,38,0,5,20,0,16,28,0,10,15,0,16,28,0,10,15,0,16,28,0,10,15,0,0,44,0,4,22,0,16,28,0,10,15,0,16,28,0,10,15,0,0,44,0,0,22,0,0,44,0,0,22,0,10,34,0,9,19,0,16,28,0,10,15,0,33,1,10,19,4,8
2017-06-26T23:59:51Z,22,44,31,16,44,22,31,16,11,8,0,0,0,0,0,0,0,44,0,22,0,44,0,22,0,0,0,0,0,0,0,0,6,28,10,5,17,8,7,37,0,6,19,0,17,27,0,11,14,0,7,37,0,6,19,0,17,27,0,11,14,0,17,27,0,11,14,0,17,27,0,11,14,0,0,44,0,4,22,0,17,27,0,11,14,0,17,27,0,11,14,0,0,44,0,0,22,0,0,44,0,0,22,0,10,34,0,9,19,0,17,27,0,11,14,0,33,1,10,19,4,8
2017-06-27T23:59:50Z,22,44,31,16,44,22,30,16,11,8,0,0,0,0,0,0,0,44,0,22,0,44,0,22,0,0,0,0,0,0,0,0,6,28,10,5,17,8,7,37,0,6,19,0,17,27,0,11,14,0,7,37,0,6,19,0,17,27,0,11,14,0,17,27,0,11,14,0,17,27,0,11,14,0,0,44,0,4,22,0,17,27,0,11,14,0,17,27,0,11,14,0,0,44,0,0,22,0,0,44,0,0,22,0,10,34,0,9,19,0,17,27,0,11,14,0,33,1,10,19,4,8
2017-06-28T23:59:50Z,23,45,31,16,45,23,31,16,11,8,0,0,0,0,0,0,0,45,0,23,0,45,0,23,0,0,0,0,0,0,0,0,6,28,10,5,17,8,7,37,0,6,19,0,17,27,0,11,14,0,7,37,0,6,19,0,17,27,0,11,14,0,17,27,0,11,14,0,17,27,0,11,14,0,0,45,0,4,23,0,17,27,0,11,14,0,17,27,0,11,14,0,0,45,0,0,23,0,0,45,0,0,23,0,10,35,0,9,20,0,17,27,0,11,14,0,34,1,10,20,4,8
2017-06-29T23:59:49Z,22,44,31,16,43,22,31,16,12,8,0,0,0,0,0,0,0,44,0,22,0,44,0,22,0,0,0,0,0,0,0,0,6,27,10,5,16,8,7,36,0,6,18,0,17,26,0,11,13,0,7,36,0,6,18,0,17,26,0,11,13,0,17,26,0,11,13,0,17,26,0,11,13,0,0,44,0,4,22,0,17,26,0,11,13,0,17,26,0,11,13,0,0,44,0,0,22,0,0,44,0,0,22,0,10,34,0,9,19,0,17,26,0,11,13,0,33,1,10,19,4,8
2017-06-30T23:59:49Z,21,42,29,15,42,21,29,15,11,8,0,0,0,0,0,0,0,42,0,21,0,42,0,21,0,0,0,0,0,0,0,0,6,25,10,5,15,8,7,34,0,6,17,0,17,24,0,11,12,0,7,34,0,6,17,0,17,24,0,11,12,0,17,24,0,11,12,0,17,24,0,11,12,0,0,42,0,4,21,0,17,24,0,11,12,0,17,24,0,11,12,0,0,42,0,0,21,0,0,42,0,0,21,0,10,32,0,9,18,0,17,24,0,11,12,0,31,1,10,18,4,8
2017-07-01T23:59:48Z,21,42,29,15,41,21,28,15,11,8,0,0,0,0,0,0,0,42,0,21,0,42,0,21,0,0,0,0,0,0,0,0,6,25,10,5,15,8,7,34,0,6,17,0,17,24,0,11,12,0,7,34,0,6,17,0,17,24,0,11,12,0,17,24,0,11,12,0,17,24,0,11,12,0,0,42,0,4,21,0,17,24,0,11,12,0,17,24,0,11,12,0,0,42,0,0,21,0,0,42,0,0,21,0,10,32,0,9,18,0,17,24,0,11,12,0,31,1,10,18,4,8
2017-07-02T23:59:48Z,21,42,29,15,40,21,29,15,12,8,0,0,0,0,0,0,0,42,0,21,0,42,0,21,0,0,0,0,0,0,0,0,6,25,10,5,15,8,7,34,0,6,17,0,17,24,0,11,12,0,7,34,0,6,17,0,17,24,0,11,12,0,17,24,0,11,12,0,17,24,0,11,12,0,0,42,0,4,21,0,17,24,0,11,12,0,17,24,0,11,12,0,0,42,0,0,21,0,0,42,0,0,21,0,10,32,0,9,18,0,17,24,0,11,12,0,31,1,10,18,4,8
2017-07-03T23:59:51Z,23,45,31,16,45,23,31,16,11,8,0,0,0,0,0,0,0,45,0,23,0,45,0,23,0,0,0,0,0,0,0,0,6,28,10,5,17,8,7,37,0,6,19,0,17,27,0,11,14,0,7,37,0,6,19,0,17,27,0,11,14,0,17,27,0,11,14,0,17,27,0,11,14,0,0,45,0,4,23,0,17,27,0,11,14,0,17,27,0,11,14,0,0,45,0,0,23,0,0,45,0,0,23,0,10,35,0,9,20,0,17,27,0,11,14,0,34,1,10,20,4,8
2017-07-04T23:59:20Z,22,43,29,15,43,22,29,15,12,8,0,0,0,0,0,0,0,43,0,22,0,43,0,22,0,0,0,0,0,0,0,0,6,26,10,5,16,8,7,35,0,6,18,0,17,25,0,11,13,0,7,35,0,6,18,0,17,25,0,11,13,0,17,25,0,11,13,0,17,25,0,11,13,0,0,43,0,4,22,0,17,25,0,11,13,0,17,25,0,11,13,0,0,43,0,0,22,0,0,43,0,0,22,0,10,33,0,9,19,0,17,25,0,11,13,0,32,1,10,19,4,8
2017-07-05T23:59:18Z,21,42,29,15,42,21,29,15,11,8,0,0,0,0,0,0,0,42,0,21,0,42,0,21,0,0,0,0,0,0,0,0,6,25,10,5,15,8,7,34,0,6,17,0,17,24,0,11,12,0,7,34,0,6,17,0,17,24,0,11,12,0,17,24,0,11,12,0,17,24,0,11,12,0,0,42,0,4,21,0,17,24,0,11,12,0,17,24,0,11,12,0,0,42,0,0,21,0,0,42,0,0,21,0,10,32,0,9,18,0,17,24,0,11,12,0,31,1,10,18,4,8
2017-07-06T23:59:18Z,20,40,27,14,40,20,26,13,11,8,0,0,0,0,0,0,0,40,0,20,0,39,0,19,0,0,0,0,0,0,0,0,6,23,10,5,14,8,7,32,0,6,16,0,17,22,0,11,11,0,7,32,0,6,16,0,17,22,0,11,11,0,17,22,0,11,11,0,17,22,0,11,11,0,0,40,0,4,20,0,17,22,0,11,11,0,17,22,0,11,11,0,0,40,0,0,20,0,0,40,0,0,20,0,10,30,0,9,17,0,17,22,0,11,11,0,29,1,10,17,4,8
2017-07-07T23:59:19Z,20,40,27,14,40,20,27,14,11,8,0,0,0,0,0,0,0,40,0,20,0,40,0,20,0,0,0,0,0,0,0,0,6,23,10,5,14,8,7,32,0,6,16,0,17,22,0,11,11,0,7,32,0,6,16,0,17,22,0,11,11,0,17,22,0,11,11,0,17,22,0,11,11,0,0,40,0,4,20,0,17,22,0,11,11,0,17,22,0,11,11,0,0,40,0,0,20,0,0,40,0,0,20,0,10,30,0,9,17,0,17,22,0,11,11,0,29,1,10,17,4,8
2017-07-08T23:59:17Z,20,40,27,14,40,20,27,14,11,8,0,0,0,0,0,0,0,40,0,20,0,40,0,20,0,0,0,0,0,0,0,0,6,23,10,5,14,8,7,32,0,6,16,0,17,22,0,11,11,0,7,32,0,6,16,0,17,22,0,11,11,0,17,22,0,11,11,0,17,22,0,11,11,0,0,40,0,4,20,0,17,22,0,11,11,0,17,22,0,11,11,0,0,40,0,0,20,0,0,40,0,0,20,0,10,30,0,9,17,0,17,22,0,11,11,0,29,1,10,17,4,8
2017-07-09T23:59:18Z,20,40,27,14,40,20,27,14,12,8,0,0,0,0,0,0,0,40,0,20,0,40,0,20,0,0,0,0,0,0,0,0,6,23,10,5,14,8,7,32,0,6,16,0,17,22,0,11,11,0,7,32,0,6,16,0,17,22,0,11,11,0,17,22,0,11,11,0,17,22,0,11,11,0,0,40,0,4,20,0,17,22,0,11,11,0,17,22,0,11,11,0,0,40,0,0,20,0,0,40,0,0,20,0,10,30,0,9,17,0,17,22,0,11,11,0,28,2,10,17,5,8
2017-07-10T23:59:55Z,23,46,31,16,46,23,31,16,11,8,0,0,0,0,0,0,0,46,0,23,0,46,0,23,0,0,0,0,0,0,0,0,6,29,10,5,17,8,7,38,0,6,19,0,17,28,0,11,14,0,7,38,0,6,19,0,17,28,0,11,14,0,17,28,0,11,14,0,17,28,0,11,14,0,0,46,0,4,23,0,17,28,0,11,14,0,17,28,0,11,14,0,0,46,0,0,23,0,0,46,0,0,23,0,10,36,0,9,20,0,17,28,0,11,14,0,35,1,10,20,4,8
2017-07-11T23:59:54Z,23,46,31,16,46,23,30,16,11,8,0,0,0,0,0,0,0,46,0,23,0,46,0,23,0,0,0,0,0,0,0,0,6,29,10,5,17,8,7,38,0,6,19,0,17,28,0,11,14,0,7,38,0,6,19,0,17,28,0,11,14,0,17,28,0,11,14,0,17,28,0,11,14,0,0,46,0,4,23,0,17,28,0,11,14,0,17,28,0,11,14,0,0,46,0,0,23,0,0,46,0,0,23,0,10,36,0,9,20,0,17,28,0,11,14,0,35,1,10,20,4,8
2017-07-12T23:59:55Z,24,48,31,16,48,24,31,16,12,8,0,0,0,0,0,0,0,48,0,24,0,48,0,24,0,0,0,0,0,0,0,0,7,30,10,6,18,8,8,39,0,7,20,0,18,29,0,12,15,0,8,39,0,7,20,0,18,29,0,12,15,0,18,29,0,12,15,0,18,29,0,12,15,0,0,48,0,4,24,0,17,30,0,11,15,0,17,30,0,11,15,0,0,48,0,0,24,0,0,48,0,0,24,0,10,38,0,9,21,0,17,30,0,11,15,0,36,2,10,21,5,8
2017-07-13T23:59:55Z,24,48,31,16,48,24,31,16,11,8,0,0,0,0,0,0,0,48,0,24,0,48,0,24,0,0,0,0,0,0,0,0,7,30,10,6,18,8,8,39,0,7,20,0,18,29,0,12,15,0,8,39,0,7,20,0,18,29,0,12,15,0,18,29,0,12,15,0,18,29,0,12,15,0,0,48,0,4,24,0,17,30,0,11,15,0,17,30,0,11,15,0,0,48,0,0,24,0,0,48,0,0,24,0,10,38,0,9,21,0,17,30,0,11,15,0,37,1,10,21,4,8
2017-07-14T23:59:55Z,24,48,31,16,48,24,31,16,11,8,0,0,0,0,0,0,0,48,0,24,0,48,0,24,0,0,0,0,0,0,0,0,7,30,10,6,18,8,8,39,0,7,20,0,18,29,0,12,15,0,8,39,0,7,20,0,18,29,0,12,15,0,18,29,0,12,15,0,18,29,0,12,15,0,0,48,0,4,24,0,17,30,0,11,15,0,17,30,0,11,15,0,0,48,0,0,24,0,0,48,0,0,24,0,10,38,0,9,21,0,17,30,0,11,15,0,37,1,10,21,4,8
2017-07-15T23:59:54Z,24,48,31,16,47,24,31,16,11,8,0,0,0,0,0,0,0,48,0,24,0,48,0,24,0,0,0,0,0,0,0,0,7,30,10,6,18,8,8,39,0,7,20,0,18,29,0,12,15,0,8,39,0,7,20,0,18,29,0,12,15,0,18,29,0,12,15,0,18,29,0,12,15,0,0,48,0,4,24,0,17,30,0,11,15,0,17,30,0,11,15,0,0,48,0,0,24,0,0,48,0,0,24,0,10,38,0,9,21,0,17,30,0,11,15,0,37,1,10,21,4,8
2017-07-16T23:59:54Z,24,48,31,16,47,24,31,16,11,8,0,0,0,0,0,0,0,48,0,24,0,47,0,23,0,0,0,0,0,0,0,0,7,30,10,6,18,8,8,39,0,7,20,0,18,29,0,12,15,0,8,39,0,7,20,0,18,29,0,12,15,0,18,29,0,12,15,0,18,29,0,12,15,0,0,48,0,4,24,0,17,30,0,11,15,0,17,30,0,11,15,0,0,48,0,0,24,0,0,48,0,0,24,0,10,38,0,9,21,0,17,30,0,11,15,0,37,1,10,21,4,8
2017-07-17T23:59:54Z,24,48,31,16,48,24,31,16,11,8,0,0,0,0,0,0,0,48,0,24,0,48,0,24,0,0,0,0,0,0,0,0,7,30,10,6,18,8,8,39,0,7,20,0,18,29,0,12,15,0,8,39,0,7,20,0,18,29,0,12,15,0,18,29,0,12,15,0,18,29,0,12,15,0,0,48,0,4,24,0,17,30,0,11,15,0,17,30,0,11,15,0,0,48,0,0,24,0,0,48,0,0,24,0,10,38,0,9,21,0,17,30,0,11,15,0,37,1,10,21,4,8
2017-07-18T23:59:54Z,24,48,31,16,48,24,31,16,11,8,0,0,0,0,0,0,0,48,0,24,0,48,0,24,0,0,0,0,0,0,0,0,7,30,10,6,18,8,8,39,0,7,20,0,18,29,0,12,15,0,8,39,0,7,20,0,18,29,0,12,15,0,18,29,0,12,15,0,18,29,0,12,15,0,0,48,0,4,24,0,17,30,0,11,15,0,17,30,0,11,15,0,0,48,0,0,24,0,0,48,0,0,24,0,10,38,0,9,21,0,17,30,0,11,15,0,37,1,10,21,4,8
2017-07-19T23:59:56Z,24,48,31,16,47,24,31,16,11,8,0,0,0,0,0,0,0,48,0,24,0,48,0,24,0,0,0,0,0,0,0,0,7,30,10,6,18,8,8,39,0,7,20,0,18,29,0,12,15,0,8,39,0,7,20,0,18,29,0,12,15,0,18,29,0,12,15,0,18,29,0,12,15,0,0,48,0,4,24,0,17,30,0,11,15,0,17,30,0,11,15,0,0,48,0,0,24,0,0,48,0,0,24,0,10,38,0,9,21,0,17,30,0,11,15,0,37,1,10,21,4,8
2017-07-20T23:59:54Z,23,46,29,15,46,23,29,15,9,7,0,0,0,0,0,0,0,46,0,23,0,46,0,23,0,0,0,0,0,0,0,0,7,30,8,6,18,7,8,37,0,7,19,0,16,29,0,11,15,0,8,37,0,7,19,0,16,29,0,11,15,0,16,29,0,11,15,0,16,29,0,11,15,0,0,46,0,4,23,0,15,30,0,10,15,0,15,30,0,10,15,0,0,46,0,0,23,0,0,46,0,0,23,0,8,38,0,8,21,0,15,30,0,10,15,0,37,1,8,21,4,7
2017-07-21T23:59:54Z,24,48,31,16,47,24,31,16,11,8,0,0,0,0,0,0,0,48,0,24,0,48,0,24,0,0,0,0,0,0,0,0,7,30,10,6,18,8,8,39,0,7,20,0,18,29,0,12,15,0,8,39,0,7,20,0,18,29,0,12,15,0,18,29,0,12,15,0,18,29,0,12,15,0,0,48,0,4,24,0,17,30,0,11,15,0,17,30,0,11,15,0,0,48,0,0,24,0,0,48,0,0,24,0,10,38,0,9,21,0,17,30,0,11,15,0,37,1,10,21,4,8
2017-07-22T23:59:57Z,23,46,29,15,46,23,29,15,9,7,0,0,0,0,0,0,0,46,0,23,0,46,0,23,0,0,0,0,0,0,0,0,7,30,8,6,18,7,8,37,0,7,19,0,16,29,0,11,15,0,8,37,0,7,19,0,16,29,0,11,15,0,16,29,0,11,15,0,16,29,0,11,15,0,0,46,0,4,23,0,15,30,0,10,15,0,15,30,0,10,15,0,0,46,0,0,23,0,0,46,0,0,23,0,8,38,0,8,21,0,15,30,0,10,15,0,37,1,8,21,4,7
2017-07-23T23:59:54Z,23,46,29,15,46,23,29,15,9,7,0,0,0,0,0,0,0,46,0,23,0,46,0,23,0,0,0,0,0,0,0,0,7,30,8,6,18,7,8,37,0,7,19,0,16,29,0,11,15,0,8,37,0,7,19,0,16,29,0,11,15,0,16,29,0,11,15,0,16,29,0,11,15,0,0,46,0,4,23,0,15,30,0,10,15,0,15,30,0,10,15,0,0,46,0,0,23,0,0,46,0,0,23,0,8,38,0,8,21,0,15,30,0,10,15,0,37,1,8,21,4,7
2017-07-24T23:59:57Z,23,47,30,15,46,23,29,15,9,7,0,0,0,0,0,0,0,47,0,23,0,47,0,23,0,0,0,0,0,0,0,0,7,31,8,6,18,7,8,38,0,7,19,0,16,30,0,11,15,0,8,38,0,7,19,0,16,30,0,11,15,0,16,30,0,11,15,0,16,30,0,11,15,0,0,47,0,4,23,0,15,31,0,10,15,0,15,31,0,10,15,0,0,47,0,0,23,0,0,47,0,0,23,0,8,39,0,8,21,0,15,31,0,10,15,0,38,1,8,21,4,7
2017-07-25T23:59:56Z,24,47,30,16,47,24,30,16,11,8,0,0,0,0,0,0,0,47,0,24,0,47,0,24,0,0,0,0,0,0,0,0,7,29,10,6,18,8,8,38,0,7,20,0,18,28,0,12,15,0,8,38,0,7,20,0,18,28,0,12,15,0,18,28,0,12,15,0,18,28,0,12,15,0,0,47,0,4,24,0,17,29,0,11,15,0,17,29,0,11,15,0,0,47,0,0,24,0,0,47,0,0,24,0,10,37,0,9,21,0,17,29,0,11,15,0,36,1,10,21,4,8
2017-07-26T23:59:56Z,24,47,30,16,47,24,30,16,11,8,0,0,0,0,0,0,0,47,0,24,0,47,0,24,0,0,0,0,0,0,0,0,7,29,10,6,18,8,8,38,0,7,20,0,18,28,0,12,15,0,8,38,0,7,20,0,18,28,0,12,15,0,18,28,0,12,15,0,18,28,0,12,15,0,0,47,0,4,24,0,17,29,0,11,15,0,17,29,0,11,15,0,0,47,0,0,24,0,0,47,0,0,24,0,10,37,0,9,21,0,17,29,0,11,15,0,36,1,10,21,4,8
2017-07-27T23:59:56Z,23,45,28,15,45,23,28,15,11,8,0,0,0,0,0,0,0,45,0,23,0,45,0,23,0,0,0,0,0,0,0,0,7,27,10,6,17,8,8,36,0,7,19,0,18,26,0,12,14,0,8,36,0,7,19,0,18,26,0,12,14,0,18,26,0,12,14,0,18,26,0,12,14,0,0,45,0,4,23,0,17,27,0,11,14,0,17,27,0,11,14,0,0,45,0,0,23,0,0,45,0,0,23,0,10,35,0,9,20,0,17,27,0,11,14,0,34,1,10,20,4,8
2017-07-28T23:59:55Z,24,47,30,16,47,24,30,16,11,8,0,0,0,0,0,0,0,47,0,24,0,46,0,23,0,0,0,0,0,0,0,0,7,29,10,6,18,8,8,38,0,7,20,0,18,28,0,12,15,0,8,38,0,7,20,0,18,28,0,12,15,0,18,28,0,12,15,0,18,28,0,12,15,0,0,47,0,4,24,0,17,29,0,11,15,0,17,29,0,11,15,0,0,47,0,0,24,0,0,47,0,0,24,0,10,37,0,9,21,0,17,29,0,11,15,0,36,1,10,21,4,8
2017-07-29T23:59:55Z,24,47,30,16,46,24,30,16,11,8,0,0,0,0,0,0,0,47,0,24,0,47,0,24,0,0,0,0,0,0,0,0,7,29,10,6,18,8,8,38,0,7,20,0,18,28,0,12,15,0,8,38,0,7,20,0,18,28,0,12,15,0,18,28,0,12,15,0,18,28,0,12,15,0,0,47,0,4,24,0,17,29,0,11,15,0,17,29,0,11,15,0,0,47,0,0,24,0,0,47,0,0,24,0,10,37,0,9,21,0,17,29,0,11,15,0,36,1,10,21,4,8
2017-07-30T23:59:55Z,24,47,30,16,47,24,30,16,11,8,0,0,0,0,0,0,0,47,0,24,0,47,0,24,0,0,0,0,0,0,0,0,7,29,10,6,18,8,8,38,0,7,20,0,18,28,0,12,15,0,8,38,0,7,20,0,18,28,0,12,15,0,18,28,0,12,15,0,18,28,0,12,15,0,0,47,0,4,24,0,17,29,0,11,15,0,17,29,0,11,15,0,0,47,0,0,24,0,0,47,0,0,24,0,10,37,0,9,21,0,17,29,0,11,15,0,36,1,10,21,4,8
2017-07-31T23:59:54Z,24,47,30,16,46,24,30,16,11,8,0,0,0,0,0,0,0,47,0,24,0,47,0,24,0,0,0,0,0,0,0,0,7,29,10,6,18,8,8,38,0,7,20,0,18,28,0,12,15,0,8,38,0,7,20,0,18,28,0,12,15,0,18,28,0,12,15,0,18,28,0,12,15,0,0,47,0,4,24,0,17,29,0,11,15,0,17,29,0,11,15,0,0,47,0,0,24,0,0,47,0,0,24,0,10,37,0,9,21,0,17,29,0,11,15,0,36,1,10,21,4,8
2017-08-01T23:59:57Z,24,48,31,16,48,24,31,16,11,8,0,0,0,0,0,0,0,48,0,24,0,48,0,24,0,0,0,0,0,0,0,0,7,30,10,6,18,8,8,39,0,7,20,0,18,29,0,12,15,0,8,39,0,7,20,0,18,29,0,12,15,0,18,29,0,12,15,0,18,29,0,12,15,0,0,48,0,4,24,0,17,30,0,11,15,0,17,30,0,11,15,0,0,48,0,0,24,0,0,48,0,0,24,0,10,38,0,9,21,0,17,30,0,11,15,0,37,1,10,21,4,8
2017-08-02T23:59:56Z,24,47,30,16,47,24,30,16,11,8,0,0,0,0,0,0,0,47,0,24,0,47,0,24,0,0,0,0,0,0,0,0,7,29,10,6,18,8,8,38,0,7,20,0,18,28,0,12,15,0,8,38,0,7,20,0,18,28,0,12,15,0,18,28,0,12,15,0,18,28,0,12,15,0,0,47,0,4,24,0,17,29,0,11,15,0,17,29,0,11,15,0,0,47,0,0,24,0,0,47,0,0,24,0,10,37,0,9,21,0,17,29,0,11,15,0,36,1,10,21,4,8
2017-08-03T23:59:56Z,23,45,28,15,44,23,28,15,11,8,0,0,0,0,0,0,0,45,0,23,0,45,0,23,0,0,0,0,0,0,0,0,7,27,10,6,17,8,8,36,0,7,19,0,18,26,0,12,14,0,8,36,0,7,19,0,18,26,0,12,14,0,18,26,0,12,14,0,18,26,0,12,14,0,0,45,0,4,23,0,17,27,0,11,14,0,17,27,0,11,14,0,0,45,0,0,23,0,0,45,0,0,23,0,10,35,0,9,20,0,17,27,0,11,14,0,34,1,10,20,4,8
2017-08-04T23:59:54Z,22,44,27,14,43,22,27,14,10,7,0,0,0,0,0,0,0,44,0,22,0,44,0,22,0,0,0,0,0,0,0,0,7,27,9,5,17,7,8,35,0,6,18,0,17,26,0,11,14,0,8,35,0,6,18,0,17,26,0,11,14,0,17,26,0,11,14,0,17,26,0,11,14,0,0,44,0,3,22,0,16,27,0,10,14,0,16,27,0,10,14,0,0,44,0,0,22,0,0,44,0,0,22,0,9,35,0,8,20,0,16,27,0,10,14,0,34,1,9,20,3,7
2017-08-05T23:59:56Z,22,44,27,14,44,22,27,14,10,7,0,0,0,0,0,0,0,44,0,22,0,44,0,22,0,0,0,0,0,0,0,0,7,27,9,5,17,7,8,35,0,6,18,0,17,26,0,11,14,0,8,35,0,6,18,0,17,26,0,11,14,0,17,26,0,11,14,0,17,26,0,11,14,0,0,44,0,3,22,0,16,27,0,10,14,0,16,27,0,10,14,0,0,44,0,0,22,0,0,44,0,0,22,0,9,35,0,8,20,0,16,27,0,10,14,0,34,1,9,20,3,7
2017-08-06T23:59:54Z,21,43,27,14,43,21,27,14,10,7,0,0,0,0,0,0,0,43,0,21,0,43,0,21,0,0,0,0,0,0,0,0,7,26,9,5,16,7,7,35,0,5,18,0,16,26,0,10,14,0,7,35,0,5,18,0,16,26,0,10,14,0,16,26,0,10,14,0,16,26,0,10,14,0,0,43,0,3,21,0,15,27,0,9,14,0,15,27,0,9,14,0,0,43,0,0,21,0,0,43,0,0,21,0,9,34,0,8,19,0,15,27,0,9,14,0,33,1,9,19,3,7
2017-08-07T23:59:55Z,22,44,27,14,44,22,27,14,10,7,0,0,0,0,0,0,0,44,0,22,0,44,0,22,0,0,0,0,0,0,0,0,7,27,9,5,17,7,8,35,0,6,18,0,17,26,0,11,14,0,8,35,0,6,18,0,17,26,0,11,14,0,17,26,0,11,14,0,17,26,0,11,14,0,0,44,0,3,22,0,16,27,0,10,14,0,16,27,0,10,14,0,0,44,0,0,22,0,0,44,0,0,22,0,9,35,0,8,20,0,16,27,0,10,14,0,34,1,9,20,3,7
2017-08-08T23:59:55Z,22,44,27,14,44,22,27,14,10,7,0,0,0,0,0,0,0,44,0,22,0,44,0,22,0,0,0,0,0,0,0,0,7,27,9,5,17,7,8,35,0,6,18,0,17,26,0,11,14,0,8,35,0,6,18,0,17,26,0,11,14,0,17,26,0,11,14,0,17,26,0,11,14,0,0,44,0,3,22,0,16,27,0,10,14,0,16,27,0,10,14,0,0,44,0,0,22,0,0,44,0,0,22,0,9,35,0,8,20,0,16,27,0,10,14,0,34,1,9,20,3,7
2017-08-09T23:59:56Z,22,44,27,14,43,22,27,14,10,7,0,0,0,0,0,0,0,44,0,22,0,44,0,22,0,0,0,0,0,0,0,0,7,27,9,5,17,7,8,35,0,6,18,0,17,26,0,11,14,0,8,35,0,6,18,0,17,26,0,11,14,0,17,26,0,11,14,0,17,26,0,11,14,0,0,44,0,3,22,0,16,27,0,10,14,0,16,27,0,10,14,0,0,44,0,0,22,0,0,44,0,0,22,0,9,35,0,8,20,0,16,27,0,10,14,0,34,1,9,20,3,7
2017-08-10T23:59:57Z,21,41,27,14,41,21,27,14,10,7,0,0,0,0,0,0,0,41,0,21,0,41,0,21,0,0,0,0,0,0,0,0,7,24,9,5,16,7,8,32,0,6,17,0,17,23,0,11,13,0,8,32,0,6,17,0,17,23,0,11,13,0,17,23,0,11,13,0,17,23,0,11,13,0,0,41,0,3,21,0,16,24,0,10,13,0,16,24,0,10,13,0,0,41,0,0,21,0,0,41,0,0,21,0,9,32,0,8,19,0,16,24,0,10,13,0,31,1,9,19,3,7
2017-08-11T23:59:56Z,21,41,27,14,41,21,27,14,10,7,0,0,0,0,0,0,0,41,0,21,0,41,0,21,0,0,0,0,0,0,0,0,7,24,9,5,16,7,8,32,0,6,17,0,17,23,0,11,13,0,8,32,0,6,17,0,17,23,0,11,13,0,17,23,0,11,13,0,17,23,0,11,13,0,0,41,0,3,21,0,16,24,0,10,13,0,16,24,0,10,13,0,0,41,0,0,21,0,0,41,0,0,21,0,9,32,0,8,19,0,16,24,0,10,13,0,31,1,9,19,3,7
2017-08-12T23:59:57Z,21,41,27,14,41,21,27,14,10,7,0,0,0,0,0,0,0,41,0,21,0,41,0,21,0,0,0,0,0,0,0,0,7,24,9,5,16,7,8,32,0,6,17,0,17,23,0,11,13,0,8,32,0,6,17,0,17,23,0,11,13,0,17,23,0,11,13,0,17,23,0,11,13,0,0,41,0,3,21,0,16,24,0,10,13,0,16,24,0,10,13,0,0,41,0,0,21,0,0,41,0,0,21,0,9,32,0,8,19,0,16,24,0,10,13,0,31,1,9,19,3,7
2017-08-13T23:59:57Z,21,41,27,14,41,21,26,14,10,7,0,0,0,0,0,0,0,41,0,21,0,41,0,21,0,0,0,0,0,0,0,0,7,24,9,5,16,7,8,32,0,6,17,0,17,23,0,11,13,0,8,32,0,6,17,0,17,23,0,11,13,0,17,23,0,11,13,0,17,23,0,11,13,0,0,41,0,3,21,0,16,24,0,10,13,0,16,24,0,10,13,0,0,41,0,0,21,0,0,41,0,0,21,0,9,32,0,8,19,0,16,24,0,10,13,0,31,1,9,19,3,7
2017-08-14T23:59:54Z,23,45,31,16,45,23,31,16,10,7,0,0,0,0,0,0,0,45,0,23,0,45,0,23,0,0,0,0,0,0,0,0,7,28,9,5,18,7,8,36,0,6,19,0,17,27,0,11,15,0,8,36,0,6,19,0,17,27,0,11,15,0,17,27,0,11,15,0,17,27,0,11,15,0,0,45,0,3,23,0,16,28,0,10,15,0,16,28,0,10,15,0,0,45,0,0,23,0,0,45,0,0,23,0,9,36,0,8,21,0,16,28,0,10,15,0,35,1,9,21,3,7
2017-08-15T23:59:57Z,23,45,31,16,44,23,31,16,10,7,0,0,0,0,0,0,0,45,0,23,0,45,0,23,0,0,0,0,0,0,0,0,7,28,9,5,18,7,8,36,0,6,19,0,17,27,0,11,15,0,8,36,0,6,19,0,17,27,0,11,15,0,17,27,0,11,15,0,17,27,0,11,15,0,0,45,0,3,23,0,16,28,0,10,15,0,16,28,0,10,15,0,0,45,0,0,23,0,0,45,0,0,23,0,9,36,0,8,21,0,16,28,0,10,15,0,35,1,9,21,3,7
2017-08-16T23:59:57Z,24,48,31,16,48,24,31,16,10,7,0,0,0,0,0,0,0,48,0,24,0,48,0,24,0,0,0,0,0,0,0,0,7,31,9,5,19,7,8,39,0,6,20,0,17,30,0,11,16,0,8,39,0,6,20,0,17,30,0,11,16,0,17,30,0,11,16,0,17,30,0,11,16,0,0,48,0,3,24,0,16,31,0,10,16,0,16,31,0,10,16,0,0,48,0,0,24,0,0,48,0,0,24,0,9,39,0,8,22,0,16,31,0,10,16,0,38,1,9,22,3,7
2017-08-17T23:59:54Z,24,48,31,16,48,24,31,16,10,7,0,0,0,0,0,0,0,48,0,24,0,48,0,24,0,0,0,0,0,0,0,0,7,31,9,5,19,7,8,39,0,6,20,0,17,30,0,11,16,0,8,39,0,6,20,0,17,30,0,11,16,0,17,30,0,11,16,0,17,30,0,11,16,0,0,48,0,3,24,0,16,31,0,10,16,0,16,31,0,10,16,0,0,48,0,0,24,0,0,48,0,0,24,0,9,39,0,8,22,0,16,31,0,10,16,0,38,1,9,22,3,7
2017-08-18T23:59:55Z,24,48,31,16,48,24,31,16,10,7,0,0,0,0,0,0,0,48,0,24,0,48,0,24,0,0,0,0,0,0,0,0,7,31,9,5,19,7,8,39,0,6,20,0,17,30,0,11,16,0,8,39,0,6,20,0,17,30,0,11,16,0,17,30,0,11,16,0,17,30,0,11,16,0,0,48,0,3,24,0,16,31,0,10,16,0,16,31,0,10,16,0,0,48,0,0,24,0,0,48,0,0,24,0,9,39,0,8,22,0,16,31,0,10,16,0,38,1,9,22,3,7
2017-08-19T23:59:56Z,24,48,31,16,48,24,31,16,10,7,0,0,0,0,0,0,0,48,0,24,0,48,0,24,0,0,0,0,0,0,0,0,7,31,9,5,19,7,8,39,0,6,20,0,17,30,0,11,16,0,8,39,0,6,20,0,17,30,0,11,16,0,17,30,0,11,16,0,17,30,0,11,16,0,0,48,0,3,24,0,16,31,0,10,16,0,16,31,0,10,16,0,0,48,0,0,24,0,0,48,0,0,24,0,9,39,0,8,22,0,16,31,0,10,16,0,38,1,9,22,3,7
2017-08-20T23:59:56Z,24,48,31,16,48,24,31,16,10,7,0,0,0,0,0,0,0,48,0,24,0,48,0,24,0,0,0,0,0,0,0,0,7,31,9,5,19,7,8,39,0,6,20,0,17,30,0,11,16,0,8,39,0,6,20,0,17,30,0,11,16,0,17,30,0,11,16,0,17,30,0,11,16,0,0,48,0,3,24,0,16,31,0,10,16,0,16,31,0,10,16,0,0,48,0,0,24,0,0,48,0,0,24,0,9,39,0,8,22,0,16,31,0,10,16,0,38,1,9,22,3,7
2017-08-21T23:59:57Z,24,48,31,16,48,24,31,16,10,7,0,0,0,0,0,0,0,48,0,24,0,48,0,24,0,0,0,0,0,0,0,0,7,31,9,5,19,7,8,39,0,6,20,0,17,30,0,11,16,0,8,39,0,6,20,0,17,30,0,11,16,0,17,30,0,11,16,0,17,30,0,11,16,0,0,48,0,3,24,0,16,31,0,10,16,0,16,31,0,10,16,0,0,48,0,0,24,0,0,48,0,0,24,0,9,39,0,8,22,0,16,31,0,10,16,0,38,1,9,22,3,7
2017-08-22T23:59:55Z,24,48,31,16,48,24,31,16,10,7,0,0,0,0,0,0,0,48,0,24,0,48,0,24,0,0,0,0,0,0,0,0,7,31,9,5,19,7,8,39,0,6,20,0,17,30,0,11,16,0,8,39,0,6,20,0,17,30,0,11,16,0,17,30,0,11,16,0,17,30,0,11,16,0,0,48,0,3,24,0,16,31,0,10,16,0,16,31,0,10,16,0,0,48,0,0,24,0,0,48,0,0,24,0,9,39,0,8,22,0,16,31,0,10,16,0,38,1,9,22,3,7
2017-08-23T23:59:55Z,24,48,31,16,48,24,31,16,10,7,0,0,0,0,0,0,0,48,0,24,0,48,0,24,0,0,0,0,0,0,0,0,7,31,9,5,19,7,8,39,0,6,20,0,17,30,0,11,16,0,8,39,0,6,20,0,17,30,0,11,16,0,17,30,0,11,16,0,17,30,0,11,16,0,0,48,0,3,24,0,16,31,0,10,16,0,16,31,0,10,16,0,0,48,0,0,24,0,0,48,0,0,24,0,9,39,0,8,22,0,16,31,0,10,16,0,38,1,9,22,3,7
2017-08-24T23:59:57Z,24,48,31,16,48,24,31,16,11,7,0,0,0,0,0,0,0,48,0,24,0,48,0,24,0,0,0,0,0,0,0,0,7,31,9,5,19,7,8,39,0,6,20,0,17,30,0,11,16,0,8,39,0,6,20,0,17,30,0,11,16,0,17,30,0,11,16,0,17,30,0,11,16,0,0,48,0,3,24,0,16,31,0,10,16,0,16,31,0,10,16,0,0,48,0,0,24,0,0,48,0,0,24,0,9,39,0,8,22,0,16,31,0,10,16,0,38,1,9,22,3,7
2017-08-25T23:59:57Z,23,46,29,15,46,23,29,15,10,7,0,0,0,0,0,0,0,46,0,23,0,46,0,23,0,0,0,0,0,0,0,0,7,29,9,5,18,7,8,37,0,6,19,0,17,28,0,11,15,0,8,37,0,6,19,0,17,28,0,11,15,0,17,28,0,11,15,0,17,28,0,11,15,0,0,46,0,3,23,0,16,29,0,10,15,0,16,29,0,10,15,0,0,46,0,0,23,0,0,46,0,0,23,0,9,37,0,8,21,0,16,29,0,10,15,0,36,1,9,21,3,7